TimeCDT,TemperatureF,Dew PointF,Humidity,Sea Level PressureIn,VisibilityMPH,Wind Direction,Wind SpeedMPH,Gust SpeedMPH,PrecipitationIn,Events,Conditions,WindDirDegrees,DateUTC
12:53 AM,36.0,24.1,62,30.00,10.0,WNW,8.1,-,N/A,,Clear,290,2012-10-10 05:53:00
1:53 AM,36.0,24.1,62,30.01,10.0,WNW,9.2,-,N/A,,Scattered Clouds,290,2012-10-10 06:53:00
2:53 AM,37.0,25.0,62,30.02,10.0,West,6.9,-,N/A,,Overcast,280,2012-10-10 07:53:00
3:53 AM,36.0,25.0,64,30.03,10.0,WNW,6.9,-,N/A,,Mostly Cloudy,290,2012-10-10 08:53:00
4:53 AM,33.1,25.0,72,30.04,10.0,West,6.9,-,N/A,,Clear,280,2012-10-10 09:53:00
5:53 AM,30.9,24.1,76,30.06,10.0,WSW,5.8,-,N/A,,Clear,250,2012-10-10 10:53:00
6:53 AM,30.9,25.0,79,30.07,10.0,West,4.6,-,N/A,,Clear,270,2012-10-10 11:53:00
7:53 AM,30.9,25.0,79,30.10,10.0,West,4.6,-,N/A,,Clear,270,2012-10-10 12:53:00
8:53 AM,35.1,27.0,72,30.11,10.0,WSW,4.6,-,N/A,,Clear,240,2012-10-10 13:53:00
9:53 AM,41.0,28.0,60,30.11,10.0,West,9.2,-,N/A,,Clear,280,2012-10-10 14:53:00
10:53 AM,45.0,26.1,48,30.12,10.0,WNW,9.2,-,N/A,,Clear,290,2012-10-10 15:53:00
11:53 AM,46.9,25.0,42,30.12,10.0,WNW,11.5,17.3,N/A,,Clear,300,2012-10-10 16:53:00
12:53 PM,48.9,25.0,39,30.10,10.0,West,10.4,20.7,N/A,,Clear,270,2012-10-10 17:53:00
1:53 PM,50.0,26.1,39,30.08,10.0,WNW,8.1,-,N/A,,Partly Cloudy,290,2012-10-10 18:53:00
2:53 PM,51.1,23.0,33,30.06,10.0,WSW,12.7,20.7,N/A,,Mostly Cloudy,250,2012-10-10 19:53:00
3:53 PM,52.0,23.0,32,30.04,10.0,SW,12.7,19.6,N/A,,Mostly Cloudy,220,2012-10-10 20:53:00
4:53 PM,51.1,24.1,35,30.02,10.0,Variable,5.8,-,N/A,,Overcast,0,2012-10-10 21:53:00
5:53 PM,51.1,24.1,35,29.99,10.0,Calm,Calm,-,N/A,,Overcast,0,2012-10-10 22:53:00
6:53 PM,50.0,25.0,38,29.98,9.0,Calm,Calm,-,N/A,,Overcast,0,2012-10-10 23:53:00
7:53 PM,50.0,25.0,38,29.97,10.0,SSE,5.8,-,N/A,,Overcast,150,2012-10-11 00:53:00
8:53 PM,50.0,25.0,38,29.94,10.0,SSE,6.9,-,N/A,,Overcast,150,2012-10-11 01:53:00
9:53 PM,50.0,24.1,36,29.91,10.0,South,6.9,-,N/A,,Overcast,170,2012-10-11 02:53:00
10:53 PM,52.0,25.0,35,29.88,10.0,South,9.2,-,N/A,,Overcast,180,2012-10-11 03:53:00
11:53 PM,53.1,26.1,35,29.84,10.0,SSW,13.8,-,N/A,,Overcast,200,2012-10-11 04:53:00